Home   Weather   Fortaleza   Past weeks

Flag for Brazil Past Weather in Fortaleza, Ceará, Brazil — Yesterday and Last 2 Weeks

Now
88 °F

Scattered clouds.


Feels Like: 93 °F
Forecast: 78 / 87 °F
Wind: 16 mph from Southeast

Location: Fortaleza Aeropor-To

Current Time: Oct 1, 2016 at 12:42:25 PM

Latest Report: Oct 1, 2016 at 12:00 PM


Visibility: N/A

Pressure: 29.95 "Hg

Humidity: 55%

Dew Point: 70 °F

Location of FortalezaLocation

Past Weather in Fortaleza — Graph

°F

Fortaleza Temperature Yesterday

Maximum temperature yesterday: 93 °F (at 12:00 PM)
Minimum temperature yesterday: 79 °F (at 3:00 AM)
Average temperature yesterday: 84 °F

High & Low Weather Summary for the Past Weeks

 TemperatureHumidityPressure
High93 °F (Sep 30, 12:00 PM)89% (Sep 17, 8:00 AM)30.04 "Hg (Sep 17, 8:00 AM)
Low75 °F (Sep 18, 5:00 AM)44% (Sep 30, 12:00 PM)29.80 "Hg (Sep 29, 2:00 PM)
Average81 °F71%29.93 "Hg
* Reported Sep 16 11:00 AM — Oct 1 11:00 AM, Fortaleza, Weather by CustomWeather, © 2016

Note: Actual official high and low records may vary slightly from our data, if they occured in-between our weather recording intervals... More about our weather records

Advertising

Fortaleza Weather History for the Previous 24 Hours

Scroll right to see more
 ConditionsComfort  
Time TempWeatherWind HumidityBarometerVisibility
11:00 AM
Sat, Oct 1
88 °FScattered clouds.17 mph59%29.95 "HgN/A
10:00 AM93 °FPartly sunny.16 mph53%29.98 "HgN/A
9:00 AM82 °FPartly sunny.10 mph79%29.98 "HgN/A
8:00 AM81 °FPartly sunny.17 mph79%29.98 "HgN/A
7:00 AM81 °FScattered clouds.5 mph79%29.95 "HgN/A
6:00 AM79 °FScattered clouds.8 mph79%29.92 "HgN/A
5:00 AM77 °FPassing clouds.7 mph83%29.89 "HgN/A
4:00 AM77 °FPassing clouds.6 mph83%29.89 "HgN/A
3:00 AM79 °FPassing clouds.13 mph74%29.89 "HgN/A
2:00 AM79 °FPassing clouds.10 mph79%29.89 "HgN/A
1:00 AM79 °FPassing clouds.13 mph79%29.92 "HgN/A
12:00 AM77 °FPassing clouds.12 mph83%29.92 "HgN/A
11:00 PM
Fri, Sep 30
79 °FPassing clouds.12 mph79%29.92 "HgN/A
10:00 PM79 °FClear.8 mph79%29.92 "Hg10 mi
9:00 PM79 °FClear.12 mph79%29.92 "Hg10 mi
8:00 PM79 °FClear.10 mph79%29.89 "Hg10 mi
7:00 PM79 °FClear.10 mph74%29.89 "Hg10 mi
6:00 PM81 °FClear.14 mph70%29.86 "Hg10 mi
5:00 PM82 °FPassing clouds.15 mph66%29.86 "HgN/A
4:00 PM86 °FPassing clouds.18 mph59%29.83 "HgN/A
3:00 PM88 °FPassing clouds.17 mph55%29.83 "HgN/A
2:00 PM91 °FPassing clouds.18 mph46%29.86 "HgN/A
1:00 PM91 °FPassing clouds.21 mph49%29.89 "HgN/A
12:00 PM93 °FPassing clouds.20 mph44%29.92 "HgN/A
Weather by CustomWeather, © 2016

See weather overviewHow to use our weather pages